Regional Weather Roundup
Issued by NWS Northern Indiana

Home | Current Version | Previous Version | Text Only | Print | Product List | Glossary Off
Versions: 1 2 3 4 5 6 7 8 9 10 11 12 13 14 15 16 17 18 19 20 21 22 23 24 25 26 27 28 29 30 31 32 33 34 35 36 37 38 39 40 41 42 43 44 45 46 47 48 49 50

016
ASUS43 KIWX 100710
RWRIWX

KIWX WEATHER ROUNDUP
NATIONAL WEATHER SERVICE NORTHERN INDIANA
200 AM EST WED FEB 10 2016

NOTE: "FAIR" INDICATES FEW OR NO CLOUDS BELOW 12,000 FEET WITH NO
SIGNIFICANT WEATHER AND/OR OBSTRUCTIONS TO VISIBILITY.

* THESE STATIONS ARE NOT UNDER NWS QUALITY CONTROL. THEY ALSO MAY NOT
  REPORT WEATHER SUCH AS PRECIPITATION OR FOG.

INZ001>027-100800-
NORTHERN INDIANA

CITY           SKY/WX    TMP DP  RH WIND       PRES   REMARKS
GARY*          CLOUDY    17   7  64 W10       29.94S WCI   5
VALPARAISO     LGT SNOW  14  10  84 W13       29.90S WCI   0
MICHIGAN CITY* LGT SNOW  19  18  93 W10G18    29.89S WCI   8
LAPORTE*       LGT SNOW  19  17  92 W10G17    29.87F WCI   7
KNOX*          CLOUDY    16  10  79 W14G20    29.89S WCI   1
SOUTH BEND     SNOW      19  16  88 NW12      29.84S VSB 1/2 WCI   7
GOSHEN         LGT SNOW  18  14  84 W13       29.82F FOG     WCI   5
MONTICELLO*    LGT SNOW  14   8  75 W10       29.92F WCI   1
LOGANSPORT*    CLOUDY    16   9  73 W10       29.91F WCI   3
ROCHESTER*     CLOUDY    19   9  63 W12G18    29.88S WCI   7
WARSAW*        CLOUDY    18  12  79 W14G21    29.84S WCI   4
ANGOLA*        CLOUDY    18  16  93 W8        29.76F WCI   7
FORT WAYNE     FLURRIES  19  12  74 W16       29.84F WCI   4
HUNTINGTON*    LGT SNOW  15   9  75 W13G18    29.85F WCI   1
PERU/GRISSOM   LGT SNOW  16  12  86 W16       29.87F WCI   0
MARION*        CLOUDY    15   6  67 W15       29.89S HAZE    WCI   0

$$
INZ028>050-100800-
CENTRAL INDIANA

CITY           SKY/WX    TMP DP  RH WIND       PRES   REMARKS
LAFAYETTE      LGT SNOW  14   9  80 W14       29.96S WCI  -1
KOKOMO*        CLOUDY    16   9  73 NW18      29.89F WCI  -1
MUNCIE*        LGT SNOW  16  10  77 W12       29.88F WCI   3
INDIANAPOLIS   FLURRIES  15   8  73 W14G23    29.93S WCI   0

$$
MIZ043>046-050>051-056>058-064>065-071>073-077>080-100800-
SOUTHWEST LOWER MICHIGAN

CITY           SKY/WX    TMP DP  RH WIND       PRES   REMARKS
BATTLE CREEK   CLOUDY    20  12  71 NW12G21   29.77S WCI   8
BENTON HARBOR  LGT SNOW  22  16  78 VRB6G22   29.84S WCI  14
COLDWATER*     CLOUDY    21  17  83 W7        29.76F WCI  13
HILLSDALE*     FLURRIES  21  17  84 W8        29.73S WCI  11
HOLLAND        LGT SNOW  19  14  81 N8        29.82S WCI   9
GRAND RAPIDS   CLOUDY    20  12  71 NW14G22   29.78F WCI   7
KALAMAZOO      CLOUDY    20  14  77 NW9       29.78S WCI   9
STURGIS*       CLOUDY    21  17  86 W7        29.78S WCI  12
THREE RIVERS*  LGT SNOW  22  18  83 NW8       29.80S WCI  12

$$
OHZ001>008-015>018-024>025-100800-
NORTHWEST OHIO

CITY           SKY/WX    TMP DP  RH WIND       PRES   REMARKS
DEFIANCE       LGT SNOW  21  14  74 W12G18    29.80F WCI   9
FINDLAY        CLOUDY    20  14  77 W16       29.78F WCI   6
TOLEDO EXPRESS CLOUDY    22  17  81 W14       29.76S WCI   9
TOLEDO METCALF CLOUDY    24  17  74 W15       29.76F WCI  11
LIMA           FLURRIES  17  13  84 W16       29.81S WCI   2

$$
AND FOR LAKE MICHIGAN COASTAL AND OPEN LAKE BUOY OBSERVATIONS

STATION/POSITION TEMP    WIND        PRES    VSBY  WAVE
                 AIR SEA DIR/SP/G                  HT/PER
                 (F)     (DEG/KT/KT) (MB)    (MI)  (FT/S)
CALUMET HARBOR    15     270/  9/ 14 1013.1F
MICHIGAN CITY     19     280/ 25/ 28   N/A
BURNS HARBOR      19     300/ 20/ 23 1013.5S
SAINT JOSEPH      23     320/ 21/ 27 1011.2R

$$
&&




USA.gov is the U.S. government's official web portal to all federal, state and local government web resources and services.